[[{"header":{"parameterUnit":"m.s-1","parameterCategory":1,"la1":30.2991,"la2":30.254,"lo1":-89.0895,"lo2":-89.0444,"dx":0.0017,"dy":0.0017,"nx":28,"ny":28,"refTime":"2022-11-30T15:00:00:Z","depth":0,"parameterNumber":2,"parameterNumberName":"U-component_of_WINDS"},"data":[0,0,0,0,0,0,0,0,0,0,0,0,0,0,0,0,0,0,0,0,0,0,0,0,0,0,0,0,0,0,0,0,0,0,0,0,0,0,0,0,0,0,0,0,0,0,0,0,0,0,0,0,0,0,0,0,0,0,-5.2371,-5.2372,0,-5.2431,-5.2432,-5.2433,-5.2268,-5.2262,-5.2257,-5.2252,-5.2315,-5.2321,-5.2327,0,0,0,0,0,0,0,0,0,0,0,0,0,-5.2112,-5.2117,-5.2371,-5.2372,-5.2373,-5.2431,-5.2432,-5.2433,-5.2268,-5.2262,-5.2256,-5.225,-5.2313,-5.232,-5.2328,0,0,0,0,0,0,0,0,0,0,0,0,0,-5.2204,-5.2119,-5.2371,-5.2298,-5.2292,-5.2431,-5.2432,-5.2433,-5.227,-5.2262,-5.2254,-5.2247,-5.231,-5.232,-5.2329,-5.2543,0,0,-5.2359,-5.2363,0,0,0,0,0,0,0,0,-5.2199,-5.2213,-5.2308,-5.2303,-5.2296,-5.2334,-5.2363,-5.247,-5.2272,-5.2278,-5.2252,-5.2243,-5.2328,-5.2335,-5.2363,-5.2545,-5.2548,-5.2359,-5.2365,-5.237,-5.2372,0,0,0,0,0,0,0,-5.2192,-5.221,-5.2395,-5.2309,-5.2302,-5.2261,-5.2266,-5.2383,-5.2345,-5.2277,-5.2265,-5.2274,-5.2323,-5.2355,-5.2364,-5.2549,-5.2359,-5.2368,-5.2374,-5.2378,-5.2905,-5.2913,0,0,0,0,0,0,-5.2196,-5.2206,-5.2393,-5.2397,-5.2228,-5.2272,-5.2277,-5.233,-5.2343,-5.2338,-5.2281,-5.2267,-5.2342,-5.2353,-5.2365,-5.2613,-5.2369,-5.2378,-5.2384,-5.2897,-5.2907,-5.2916,0,0,0,0,0,0,-5.2191,-5.2214,-5.239,-5.2298,-5.2317,-5.2285,-5.2345,-5.2335,-5.2366,-5.2346,-5.2339,-5.232,-5.2336,-5.2352,-5.2499,-5.2613,-5.2383,-5.2392,-5.2888,-5.29,-5.2912,-5.3113,0,0,0,0,0,0,-5.2184,-5.2213,-5.2295,-5.2301,-5.2323,-5.2524,-5.2352,-5.2342,-5.2383,-5.2365,-5.2381,-5.2377,-5.2331,-5.2485,-5.2509,-5.2622,-5.2399,-5.2877,-5.2893,-5.2908,-5.3096,-5.3131,-5.3161,0,0,0,0,0,-5.2175,-5.235,-5.23,-5.2323,-5.2424,-5.2531,-5.2543,-5.2488,-5.2393,-5.2474,-5.2461,-5.2376,-5.2598,-5.2502,-5.2526,-5.2645,-5.287,-5.2889,-5.2907,-5.3082,-5.3124,-5.316,0,0,0,0,0,0,-5.2358,-5.2349,-5.2293,-5.2475,-5.2505,-5.2503,-5.2603,-5.2535,-5.2592,-5.2573,-5.2501,-5.2506,-5.2666,-5.267,-5.2564,-5.285,-5.2717,-5.2742,-5.2842,-5.2882,-5.2914,-5.2909,-5.2407,0,0,0,0,0,-5.242,-5.2508,-5.2495,-5.2657,-5.2675,-5.2637,-5.2682,-5.2636,-5.2664,-5.2676,-5.2673,-5.2704,-5.2779,-5.2831,-5.29,-5.3096,-5.3096,-5.319,-5.3222,-5.3249,-5.327,-5.3371,-5.3412,-5.2977,-5.2977,-5.2977,0,0,-5.2548,-5.2554,-5.2614,-5.2694,-5.2711,-5.2803,-5.2649,-5.2753,-5.282,-5.2692,-5.2829,-5.2829,-5.2858,-5.303,-5.3106,-5.3038,-5.339,-5.3272,-5.3294,-5.33,-5.3394,-5.3435,-5.3472,-5.299,-5.2987,-5.2985,0,0,-5.2827,-5.2842,-5.2976,-5.2997,-5.3025,-5.2999,-5.3031,-5.304,-5.3034,-5.3171,-5.3076,-5.3154,-5.3288,-5.3311,-5.3341,-5.3627,-5.355,-5.3652,-5.382,-5.3919,-5.3953,-5.3983,-5.4083,-5.412,-5.3673,-5.3674,-5.3674,0,-5.2983,-5.3118,-5.3055,-5.3165,-5.3202,-5.3089,-5.3223,-5.3247,-5.3297,-5.3324,-5.3248,-5.3411,-5.3423,-5.3597,-5.3667,-5.3695,-5.3729,-5.3649,-5.3953,-5.3983,-5.401,-5.4104,-5.4142,-5.3686,-5.3685,-5.3683,-5.3682,0,-5.3306,-5.3401,-5.3506,-5.3556,-5.3605,-5.3727,-5.3682,-5.3739,-5.3688,-5.367,-5.381,-5.382,-5.3887,-5.3925,-5.3878,-5.4093,-5.405,-5.3966,-5.3829,-5.4064,-5.4151,-5.4187,-5.3703,-5.3699,-5.3695,-5.3692,0,0,-5.3703,-5.3714,-5.3754,-5.3774,-5.3796,-5.3868,-5.3984,-5.405,-5.4099,-5.4137,-5.4231,-5.4346,-5.4266,-5.43,-5.4254,-5.4342,-5.4565,-5.4245,-5.4245,-5.4302,-5.4799,-5.4861,-5.4904,-5.4514,-5.4521,-5.4526,-5.4795,0,-5.3976,-5.4175,-5.4121,-5.4319,-5.4404,-5.4298,-5.4399,-5.4423,-5.4408,-5.4478,-5.4462,-5.4543,-5.4434,-5.4453,-5.4535,-5.4521,-5.4663,-5.4501,-5.46,-5.4604,-5.4594,-5.4949,-5.5016,-5.5269,-5.4829,-5.4835,-5.4839,0,-5.4322,-5.4372,-5.4579,-5.4584,-5.4618,-5.471,-5.4763,-5.4832,-5.4857,-5.484,-5.4877,-5.4813,-5.4925,-5.4791,-5.4944,-5.4835,-5.4872,-5.4871,-5.488,-5.4885,-5.4735,-5.4962,-5.5349,-5.5386,-5.4893,-5.4888,-5.4885,0,-5.4587,-5.4706,-5.4844,-5.4865,-5.4876,-5.4942,-5.495,-5.4967,-5.5009,-5.5056,-5.5082,-5.5143,-5.5176,-5.5224,-5.5177,-5.5084,-5.5337,-5.5199,-5.5325,-5.5326,-5.5382,-5.5378,-5.5777,-5.5411,-5.541,-5.5409,-5.5408,0,-5.4897,-5.5027,-5.4963,-5.5048,-5.519,-5.5126,-5.5268,-5.5263,-5.5279,-5.536,-5.5272,-5.535,-5.5285,-5.5357,-5.5321,-5.5452,-5.5469,-5.5457,-5.5445,-5.5464,-5.5465,-5.5486,-5.5466,-5.5419,-5.5417,-5.5415,-5.5413,0,-5.5216,-5.5179,-5.5322,-5.532,-5.5323,-5.5427,-5.5424,-5.5502,-5.5481,-5.5585,-5.5605,-5.5572,-5.5652,-5.561,-5.5694,-5.5669,-5.5838,-5.5804,-5.583,-5.582,-5.5947,-5.5934,-5.6371,-5.6424,-5.6026,-5.603,-5.6033,0,-5.5415,-5.5512,-5.552,-5.5568,-5.5581,-5.566,-5.5701,-5.5642,-5.5689,-5.5723,-5.5796,-5.5869,-5.5923,-5.6055,-5.6038,-5.6101,-5.6066,-5.6215,-5.6075,-5.6089,-5.6065,-5.6058,-5.6066,-5.6242,-5.6247,-5.6251,-5.6254,0,-5.5771,-5.5747,-5.5811,-5.5868,-5.592,-5.5963,-5.5998,-5.6042,-5.5983,-5.604,-5.612,-5.6163,-5.6246,-5.6318,-5.6372,-5.6378,-5.6306,-5.6298,-5.633,-5.6348,-5.6358,-5.6351,-5.5904,-5.6288,-5.6284,-5.6282,-5.628,-5.6279,-5.6034,-5.6114,-5.6132,-5.6205,-5.6224,-5.6259,-5.6331,-5.6318,-5.6383,-5.6446,-5.6408,-5.6501,-5.6521,-5.6585,-5.6601,-5.6673,-5.6613,-5.666,-5.6672,-5.6683,-5.6699,-5.6349,-5.6683,-5.6682,-5.6681,-5.668,-5.6679,0,-5.6382,-5.6388,-5.6456,-5.6507,-5.6564,-5.6491,-5.6526,-5.6578,-5.6661,-5.6686,-5.6741,-5.6832,-5.69,-5.6888,-5.6951,-5.701,-5.6978,-5.7028,-5.7022,-5.7024,-5.6751,-5.6715,-5.7053,-5.7053,-5.7053,-5.7052,-5.7052,-5.7052,-5.657,-5.6701,-5.668,-5.6819,-5.6823,-5.6914,-5.6939,-5.6969,-5.6988,-5.7094,-5.715,-5.7142,-5.7151,-5.7213,-5.7272,-5.7266,-5.7292,-5.7354,-5.7336,-5.7081,-5.7044,-5.7008,-5.6975,-5.7361,-5.7361,-5.7603,-5.7605,-5.7607]},{"header":{"parameterUnit":"m.s-1","parameterCategory":1,"la1":30.2991,"la2":30.254,"lo1":-89.0895,"lo2":-89.0444,"dx":0.0017,"dy":0.0017,"nx":28,"ny":28,"refTime":"2022-11-30T15:00:00:Z","depth":0,"parameterNumber":3,"parameterNumberName":"V-component_of_WINDS"},"data":[0,0,0,0,0,0,0,0,0,0,0,0,0,0,0,0,0,0,0,0,0,0,0,0,0,0,0,0,0,0,0,0,0,0,0,0,0,0,0,0,0,0,0,0,0,0,0,0,0,0,0,0,0,0,0,0,0,0,-1.9621,-1.9621,0,-1.966,-1.9661,-1.9661,-1.9652,-1.9651,-1.965,-1.965,-1.9689,-1.9691,-1.9693,0,0,0,0,0,0,0,0,0,0,0,0,0,-1.9534,-1.9536,-1.9621,-1.9621,-1.9622,-1.966,-1.9661,-1.9661,-1.9652,-1.9651,-1.965,-1.9649,-1.9689,-1.9691,-1.9693,0,0,0,0,0,0,0,0,0,0,0,0,0,-1.9573,-1.9536,-1.962,-1.9622,-1.9622,-1.966,-1.9661,-1.9661,-1.9652,-1.9651,-1.965,-1.9649,-1.9688,-1.9691,-1.9693,-1.9732,0,0,-1.9701,-1.9702,0,0,0,0,0,0,0,0,-1.957,-1.9576,-1.9621,-1.9622,-1.9622,-1.965,-1.9645,-1.9685,-1.9652,-1.9641,-1.965,-1.9648,-1.9677,-1.9681,-1.969,-1.9734,-1.9736,-1.9702,-1.9703,-1.9704,-1.9705,0,0,0,0,0,0,0,-1.9568,-1.9574,-1.9636,-1.9622,-1.9622,-1.9619,-1.9623,-1.9652,-1.9665,-1.9642,-1.9641,-1.9646,-1.9677,-1.9688,-1.9691,-1.9736,-1.9701,-1.9704,-1.9705,-1.9706,-1.981,-1.9811,0,0,0,0,0,0,-1.9565,-1.9572,-1.9635,-1.9637,-1.9593,-1.9622,-1.9626,-1.9642,-1.9664,-1.9667,-1.9647,-1.9645,-1.9684,-1.9688,-1.9693,-1.9738,-1.9704,-1.9707,-1.9708,-1.9809,-1.9811,-1.9812,0,0,0,0,0,0,-1.9563,-1.9571,-1.9633,-1.9604,-1.9612,-1.9624,-1.9642,-1.9644,-1.9654,-1.9668,-1.967,-1.9656,-1.9683,-1.9689,-1.9722,-1.9739,-1.9708,-1.971,-1.9808,-1.981,-1.9811,-1.9829,0,0,0,0,0,0,-1.9561,-1.957,-1.9586,-1.9605,-1.9614,-1.9663,-1.9643,-1.9645,-1.9659,-1.9657,-1.9677,-1.9679,-1.9683,-1.9718,-1.9724,-1.9742,-1.9712,-1.9806,-1.9809,-1.9811,-1.9827,-1.9831,-1.9835,0,0,0,0,0,-1.9558,-1.959,-1.9587,-1.9594,-1.9634,-1.9664,-1.9669,-1.9672,-1.966,-1.9676,-1.9684,-1.9679,-1.9736,-1.9721,-1.9729,-1.9747,-1.9805,-1.9808,-1.981,-1.9825,-1.983,-1.9834,0,0,0,0,0,0,-1.9573,-1.9592,-1.9589,-1.9629,-1.9644,-1.9662,-1.9682,-1.9678,-1.9698,-1.9695,-1.9699,-1.9703,-1.9736,-1.9745,-1.9728,-1.9784,-1.9769,-1.9773,-1.9777,-1.9782,-1.9786,-1.9783,-1.9715,0,0,0,0,0,-1.9581,-1.9604,-1.9619,-1.9653,-1.9661,-1.967,-1.9683,-1.9684,-1.9701,-1.9707,-1.9718,-1.9734,-1.9755,-1.9769,-1.979,-1.9828,-1.9831,-1.9844,-1.9848,-1.9851,-1.9855,-1.9873,-1.9878,-1.982,-1.982,-1.982,0,0,-1.9597,-1.9611,-1.9625,-1.9656,-1.9668,-1.9691,-1.9676,-1.9701,-1.9717,-1.9711,-1.9742,-1.9751,-1.9768,-1.9803,-1.9819,-1.9812,-1.9871,-1.9855,-1.9857,-1.9859,-1.9876,-1.9881,-1.9886,-1.9822,-1.9822,-1.9822,0,0,-1.9639,-1.9652,-1.968,-1.9692,-1.9711,-1.9716,-1.9723,-1.9741,-1.9746,-1.9777,-1.9772,-1.9791,-1.9829,-1.984,-1.9851,-1.9894,-1.9889,-1.9901,-1.9921,-1.9939,-1.9943,-1.9947,-1.9961,-1.9966,-1.9905,-1.9905,-1.9905,0,-1.9657,-1.9692,-1.9695,-1.972,-1.9733,-1.9727,-1.9754,-1.9766,-1.979,-1.9799,-1.979,-1.9835,-1.9847,-1.9883,-1.9893,-1.9903,-1.9909,-1.9899,-1.9943,-1.9947,-1.995,-1.9963,-1.9968,-1.9906,-1.9906,-1.9905,-1.9905,0,-1.9712,-1.9736,-1.9756,-1.9779,-1.9794,-1.982,-1.9826,-1.984,-1.9839,-1.9845,-1.9875,-1.9889,-1.9911,-1.992,-1.992,-1.9955,-1.995,-1.9942,-1.9926,-1.9957,-1.9969,-1.9974,-1.9907,-1.9907,-1.9907,-1.9906,0,0,-1.9766,-1.9788,-1.9796,-1.9805,-1.9824,-1.9842,-1.9866,-1.9887,-1.9899,-1.9915,-1.9935,-1.9965,-1.9957,-1.997,-1.9971,-1.9986,-2.0017,-1.9976,-1.9976,-1.9982,-2.0054,-2.0059,-2.0065,-2.0013,-2.0014,-2.0015,-2.0052,0,-1.9808,-1.9852,-1.9854,-1.9893,-1.9914,-1.9908,-1.9929,-1.9942,-1.9948,-1.9965,-1.9971,-1.9992,-1.9981,-1.9988,-2.0003,-2.001,-2.0031,-2.0007,-2.003,-2.0031,-2.0025,-2.0071,-2.0077,-2.0111,-2.0057,-2.0058,-2.0058,0,-1.9864,-1.988,-1.9922,-1.9935,-1.9944,-1.9963,-1.9981,-1.9998,-2.0012,-2.0015,-2.0027,-2.0025,-2.0049,-2.0032,-2.0064,-2.0048,-2.0057,-2.0062,-2.0063,-2.0064,-2.0046,-2.0073,-2.0122,-2.0127,-2.0066,-2.0065,-2.0065,0,-1.9896,-1.9929,-1.9957,-1.9966,-1.9983,-1.9996,-2.0003,-2.0016,-2.0028,-2.0043,-2.005,-2.0069,-2.0078,-2.0092,-2.0094,-2.0082,-2.0125,-2.0109,-2.0127,-2.0126,-2.0136,-2.0135,-2.0186,-2.0144,-2.0144,-2.0143,-2.0143,0,-1.9942,-1.9967,-1.9972,-1.9989,-2.0016,-2.0017,-2.0044,-2.005,-2.0061,-2.0079,-2.0075,-2.0091,-2.0094,-2.011,-2.0112,-2.0136,-2.0141,-2.0143,-2.0143,-2.0143,-2.0142,-2.0148,-2.0146,-2.0145,-2.0145,-2.0144,-2.0144,0,-1.9984,-1.9988,-2.0018,-2.003,-2.0034,-2.0053,-2.0063,-2.0079,-2.0083,-2.0105,-2.011,-2.0117,-2.0136,-2.0139,-2.0162,-2.0163,-2.0192,-2.019,-2.0187,-2.0186,-2.0203,-2.0201,-2.0259,-2.0266,-2.022,-2.0221,-2.0221,0,-2.0012,-2.0031,-2.0045,-2.0056,-2.0064,-2.0082,-2.0093,-2.0095,-2.0106,-2.0122,-2.0135,-2.0154,-2.0168,-2.0199,-2.0205,-2.0221,-2.0219,-2.0238,-2.0222,-2.022,-2.0218,-2.0216,-2.0217,-2.0242,-2.0242,-2.0242,-2.0243,0,-2.0062,-2.0062,-2.0079,-2.0095,-2.0109,-2.0122,-2.0135,-2.0144,-2.0146,-2.0159,-2.0178,-2.019,-2.0212,-2.0229,-2.0245,-2.0252,-2.0247,-2.0248,-2.0252,-2.0252,-2.0249,-2.0249,-2.0194,-2.0247,-2.0246,-2.0246,-2.0246,-2.0246,-2.0097,-2.0112,-2.0123,-2.0141,-2.015,-2.0161,-2.0176,-2.0181,-2.0197,-2.0215,-2.0214,-2.0234,-2.0245,-2.0266,-2.0274,-2.0289,-2.0283,-2.029,-2.0291,-2.0293,-2.0293,-2.0247,-2.0292,-2.0292,-2.0292,-2.0292,-2.0292,0,-2.0145,-2.0151,-2.0167,-2.0184,-2.0197,-2.0191,-2.0204,-2.0215,-2.0233,-2.0244,-2.0258,-2.0278,-2.0294,-2.0301,-2.0317,-2.0327,-2.0325,-2.0331,-2.033,-2.0331,-2.0299,-2.0293,-2.0333,-2.0333,-2.0333,-2.0332,-2.0332,-2.0332,-2.0171,-2.0196,-2.0197,-2.0225,-2.0232,-2.0251,-2.0258,-2.0268,-2.0276,-2.0299,-2.0312,-2.0316,-2.0325,-2.0341,-2.0355,-2.0356,-2.0362,-2.0368,-2.0369,-2.0338,-2.0334,-2.033,-2.0324,-2.037,-2.037,-2.0399,-2.04,-2.04]}]]